Location: Luna
(33.8188°N, 108.9564°W)
Time: 22:09:59
(UTC+00:00)

N. Korean satellite - Pass Details

Date: 02 December 2022
Orbit: 407 x 442 km, 97.3° (Epoch: 05 February)

Event Time Altitude Azimuth Distance (km) Brightness Sun altitude
Rises 12:33:56 0° 9° (N) 2,512 10.1 -18.3°
Reaches altitude 10° 12:36:00 10° 8° (N) 1,626 9.1 -17.8°
Maximum altitude 12:39:29 75° 283° (WNW) 483 6.3 -17.2°
Drops below altitude 10° 12:42:53 10° 198° (SSW) 1,588 9.2 -16.5°
Sets 12:44:53 0° 196° (SSW) 2,446 10.1 -16.1°
